Location: Newark
(47.5000°N, 4.6167°E)
Time: 05:35:56
(UTC+00:00)

X-37B - Pass Details

Date: 13 December 2021
Orbit: 334 x 337 km, 45.0° (Epoch: 11 January)

Event Time Altitude Azimuth Distance (km) Brightness Sun altitude
Rises 17:39:13 0° 266° (W) 2,104 5.9 -17.4°
Reaches altitude 10° 17:41:15 10° 260° (W) 1,267 4.5 -17.7°
Maximum altitude 17:44:01 50° 184° (S) 436 0.9 -18.2°
Enters shadow 17:44:11 49° 169° (S) 441 0.8 -18.2°
